Regional Weather Roundup
Issued by NWS Charleston, SC

Home | Current Version | Previous Version | Text Only | Print | Product List | Glossary On
Versions: 1 2 3 4 5 6 7 8 9 10 11 12 13 14 15 16 17 18 19 20 21 22 23 24 25 26 27 28 29 30 31 32 33 34 35 36 37 38 39 40 41 42 43 44 45 46 47 48 49 50
000
ASUS42 KCHS 191827
RWRCHS

REGIONAL WEATHER ROUNDUP
NATIONAL WEATHER SERVICE CHARLESTON SC
100 PM EST THU JAN 19 2017

NOTE: "FAIR" INDICATES FEW OR NO CLOUDS BELOW 12,000 FEET WITH NO
SIGNIFICANT WEATHER AND/OR OBSTRUCTIONS TO VISIBILITY.

NOT ALL STATIONS ARE QUALITY CONTROLLED. USE DATA WITH CAUTION...
ESPECIALLY DEWPOINT OBSERVATIONS.

SCZ027-030-031-034>040-042>050-191900-
...SOUTHEAST SOUTH CAROLINA...

CITY           SKY/WX    TMP DP  RH WIND       PRES   REMARKS
N CHARLESTON   PTSUNNY   70  54  56 E9        30.02F
6HR MIN TEMP:  48; 6HR MAX TEMP:  71;

WATERFRONT PRK   N/A     65  57  75 E6        30.02F
MOUNT PLEASANT FAIR      68  55  64 E5        30.02F
JOHNS ISLAND   FAIR      68  55  64 NE9       30.01F
PINOPOLIS        N/A     57  54  88 NW6       29.96F
MONCKS CORNER  FAIR      68  52  56 SE3       30.01F
SUMMERVILLE    FAIR      70  55  60 CALM      30.02F
BEAUFORT MCAS  SUNNY     68  56  65 E6        30.02F
6HR MIN TEMP:  54; 6HR MAX TEMP:  69;

BEAUFORT ARPT  FAIR      66  50  55 NE5       30.01F HAZE
HILTON HEAD IS SUNNY     68  55  64 NE7       30.03
WALTERBORO     PTCLDY    68  54  60 CALM      30.02F
ALLENDALE      FAIR      70  48  46 NE5       30.00F

...SOUTHERN MIDLANDS AND PEE DEE...

CITY           SKY/WX    TMP DP  RH WIND       PRES   REMARKS
GEORGETOWN     FAIR      63  48  59 NE8       30.05F
KINGSTREE      FAIR      66  41  39 CALM      30.03F
ORANGEBURG     SUNNY     66  47  50 NE6       30.03F
6HR MIN TEMP:  49; 6HR MAX TEMP:  66;

BARNWELL       FAIR      70  50  49 E5        30.01F
AIKEN          FAIR      66  46  48 NE6       30.04F
MANNING        FAIR      64  37  36 N3        30.03F
COLUMBIA       PTSUNNY   68  40  35 E10       30.03F
6HR MIN TEMP:  42; 6HR MAX TEMP:  68;

SUMTER         SUNNY     66  40  38 N6        30.02F
6HR MIN TEMP:  42; 6HR MAX TEMP:  66; 6HR PCP: TRACE;

FLORENCE       SUNNY     64  42  44 CALM      30.05F
6HR MIN TEMP:  43; 6HR MAX TEMP:  65;

MYRTLE BEACH   SUNNY     61  46  59 E12       30.11
N MYRTLE BEACH SUNNY     60  46  59 SE7       30.05F
6HR MIN TEMP:  43; 6HR MAX TEMP:  61;


$$

GAZ063-065-086>088-099>101-113>116-118-119-134>141-150-191900-
...SOUTHEAST GEORGIA...

CITY           SKY/WX    TMP DP  RH WIND       PRES   REMARKS
SAVANNAH ARPT  PTSUNNY   77  45  32 W7        30.00F
6HR MIN TEMP:  55; 6HR MAX TEMP:  77;

HUNTER AAF     SUNNY     77  53  43 CALM      29.98F
6HR MIN TEMP:  54; 6HR MAX TEMP:  78;

FORT STEWART   SUNNY     75  55  49 W5        29.98F
6HR MIN TEMP:  53; 6HR MAX TEMP:  75;

STATESBORO     SUNNY     76  55  47 NW5       29.99F
SYLVANIA       CLEAR    N/A N/A N/A N7        30.00F
CLAXTON        FAIR      77  59  54 SW3       30.00F

...CSRA...CENTRAL AND FAR SOUTHEAST GEORGIA...

CITY           SKY/WX    TMP DP  RH WIND       PRES   REMARKS
THOMSON        SUNNY     71  48  43 CALM      30.05F
AUGUSTA-BUSH   SUNNY     70  42  36 CALM      30.00F
6HR MIN TEMP:  46; 6HR MAX TEMP:  71;

AUGUSTA-DANIEL SUNNY     69  41  36 E6        30.01F
SWAINSBORO     FAIR      73  55  53 MISG      30.01F
VIDALIA        SUNNY     75  61  60 CALM      30.00F
EASTMAN        FAIR      75  49  40 S5        30.03F
HAZLEHURST     FAIR      76  63  62 SW5       30.00F
ALMA           CLOUDY    72  61  68 CALM      30.01F
6HR MIN TEMP:  50; 6HR MAX TEMP:  73;

WAYCROSS       CLOUDY    77  65  68 S3        30.01F
JESUP          FAIR      73  57  56 CALM      30.00F
BAXLEY           N/A     73  63  68 CALM      30.00F
BRUNSWICK      SUNNY     77  63  61 CALM      30.01F
SAINT SIMONS   MOSUNNY   71  54  54 S6        30.01F
6HR MIN TEMP:  55; 6HR MAX TEMP:  73;


$$

SCZ027-028-034-036>038-045-046-048>050-GAZ119-141-191900-
...LAKE AND SUPPLEMENTAL COASTAL OBSERVATIONS...

STATION/POSITION TIME  TEMP    WIND        PRES    WAVE   SWELL
                       AIR SEA DIR/SP/G            HT/PER HT/PER/DIR
                 (UTC) (F)     (DEG/KT/KT) (MB)    (FT/S) (FT/S/D)
WINYAH BAY       1745   56      60/  9     1018.0S
LAKE MURRAY      1820   63      90/  3/  7 1016.3
ACE BASIN NERRS  1745   69        CALM     1017.0F
FORT PULASKI     1800      57  100/ 12/ 14 1016.5
SAPELO ISLAND    1800   74        CALM     1016.0

$$

ANZ835-935-AMZ111-154-330-350-352-354-370-450-454-472-191900-
...C-MAN AND BUOY OBSERVATIONS...

STATION/POSITION TIME  TEMP    WIND        PRES    WAVE   SWELL
                       AIR SEA DIR/SP/G            HT/PER HT/PER/DIR
                 (UTC) (F)     (DEG/KT/KT) (MB)    (FT/S) (FT/S/D)
BUOY 41004       1750   68 72   50/ 14/ 16 1015.7F   4/10   2/ 60/10
BUOY 41008       1750   61 60  250/  4/  4 1016.1F   1
FOLLY BEACH CMAN 1800   58      50/ 14/ 17 1017.1F
CAPERS NEARSHORE 1808   55 55   60/ 16/ 21 1016.3F
FRIPP NEARSHORE  1808   59 58   50/  8/ 14 1016.2F


STATION/POSITION TIME  TEMP    WIND        PRES    WAVE   SWELL
                       AIR SEA DIR/SP/G            HT/PER HT/PER/DIR
                 (UTC) (F)     (DEG/KT/KT) (MB)    (FT/S) (FT/S/D)
5E ST. MARYS GA  1800      65                N/A     1
FRYING PAN BUOY  1810   61 71   40/ 10/ 12 1017.0
BUOY 41025       1750   52 76  350/ 14/ 16 1017.3F   6/11   5/ 50/11
CAPE LOOKOUT NC  1800   53      40/  9/ 11 1017.3F
BUOY 41002       1750   67 72  360/  8/ 12 1015.6F   7/10   7/ 30/10
BUOY 41010       NOT AVBL
ST AUGUSTINE FL  1800   62 63   90/  5/  6 1017.4F


$$




USA.gov is the U.S. government's official web portal to all federal, state and local government web resources and services.